User: anonymous   Login
Location: Unspecified
(0.0000°N, 0.0000°E)
Time: 02:13:22
(UTC+00:00)
Language:

TBA - TO BE ASSIGNED - Orbit

View from above orbital plane
View from above orbital plane
View from above satellite
View from above satellite

Ground track
Ground track

The orbit is defined by the following mean orbital elements,

1 67687U          26145.12106645 +.00000000 +00000-0 +63782-3 0 00009
2 67687  51.6302  50.0450 0009759  97.5806 262.6296 15.58388834    08
Epoch (UTC): 25 May 2026 02:54:20
Eccentricity: 0.0009759
inclination: 51.6302°
perigee height: 386 km
apogee height: 399 km
right ascension of ascending node: 50.0450°
argument of perigee: 97.5806°
revolutions per day: 15.58388834
mean anomaly at epoch: 262.6296°

The dashed part of the orbit path shows where the satellite is in the earth's shadow,  

DLR